Printer-friendly version

IAU Minor Planet Center

Minor Planet Center

MPEC 2004-U45 : 2004 UT1

The following Minor Planet Electronic Circular may be linked-to from your own Web pages, but must not otherwise be redistributed electronically.


Read MPEC 2004-U44 Read MPEC 2004-U46


M.P.E.C. 2004-U45                                Issued 2004 Oct. 26, 14:47 UT

     The Minor Planet Electronic Circulars contain information on unusual
         minor planets and routine data on comets.  They are published
   on behalf of Commission 20 of the International Astronomical Union by the
          Minor Planet Center, Smithsonian Astrophysical Observatory,
                          Cambridge, MA 02138, U.S.A.

                  Supported in part by the Brinson Foundation
             Prepared using the Tamkin Foundation Computer Network

                              MPC@CFA.HARVARD.EDU
          URL http://cfa-www.harvard.edu/iau/mpc.html  ISSN 1523-6714

                                   2004 UT1

Observations:
     K04U01T* C2004 10 23.36926 03 03 34.49 +24 14 43.4          18.8   EU045704
     K04U01T  C2004 10 23.38107 03 03 35.98 +24 12 59.0          19.6   EU045704
     K04U01T  C2004 10 23.39287 03 03 37.51 +24 11 13.7          19.0   EU045704
     K04U01T  C2004 10 23.40475 03 03 39.18 +24 09 26.8          20.0   EU045704
     K04U01T  C2004 10 23.41669 03 03 40.86 +24 07 39.2          19.3   EU045704
     K04U01T  C2004 10 24.31046 03 08 56.67 +21 33 16.3          18.6   EU045704
     K04U01T  C2004 10 24.31055 03 08 56.69 +21 33 15.0          18.7   EU045704
     K04U01T  C2004 10 24.32233 03 08 59.11 +21 30 50.8          19.0   EU045704
     K04U01T  C2004 10 24.32243 03 08 59.09 +21 30 49.4          18.8   EU045704
     K04U01T  C2004 10 24.33421 03 09 01.49 +21 28 23.4          18.9   EU045704
     K04U01T  C2004 10 24.33431 03 09 01.45 +21 28 21.6          18.9   EU045704
     K04U01T  C2004 10 24.34610 03 09 03.94 +21 25 54.0          18.8   EU045704
     K04U01T  C2004 10 24.34620 03 09 03.88 +21 25 52.5          18.9   EU045704
     K04U01T  C2004 10 24.35808 03 09 06.33 +21 23 22.4          19.4   EU045704
     K04U01T  C2004 10 24.96034 03 13 50.75 +18 55 11.3          17.7 R EU045J95
     K04U01T  C2004 10 24.96263 03 13 51.55 +18 54 34.8                 EU045J95
     K04U01T  C2004 10 24.97349 03 13 55.49 +18 51 37.3          18.5 R EU045J95
     K04U01T  C2004 10 25.31123 03 16 52.81 +17 12 22.5          18.4   EU045704
     K04U01T  C2004 10 25.32333 03 16 57.04 +17 08 24.3          19.1   EU045704
     K04U01T  C2004 10 25.34741 03 17 05.61 +17 00 23.9          19.0   EU045704
     K04U01T  C2004 10 25.35945 03 17 09.93 +16 56 19.8          19.1   EU045704
     K04U01T  C2004 10 25.38278 03 17 13.01 +16 47 17.3          18.0 R EU045734
     K04U01T  C2004 10 25.38321 03 17 13.21 +16 47 07.5          18.5 R EU045734
     K04U01T  C2004 10 25.38362 03 17 13.40 +16 46 58.6          18.4 R EU045734
     K04U01T  C2004 10 25.38404 03 17 13.48 +16 46 50.2          18.2 R EU045734
     K04U01T  C2004 10 25.38447 03 17 13.70 +16 46 41.9          18.2 R EU045734
     K04U01T  C2004 10 25.98823 03 24 40.98 +12 39 54.2          17.8 R EU045J95
     K04U01T  C2004 10 25.99221 03 24 43.47 +12 38 00.2          18.2 R EU045J95
     K04U01T  C2004 10 25.99623 03 24 45.93 +12 36 05.4          17.6 R EU045J95
     K04U01T  C2004 10 26.24655 03 28 41.37 +10 29 17.2          17.4 R EU045854
     K04U01T  C2004 10 26.24845 03 28 42.71 +10 28 13.7          17.4 R EU045854
     K04U01T  C2004 10 26.25038 03 28 44.07 +10 27 09.8          17.4 R EU045854
     K04U01T 2C2004 10 26.40715 03 30 27.24 +08 54 41.1          17.2 R EU045H06
     K04U01T 2C2004 10 26.41002 03 30 29.36 +08 52 52.3          17.6 R EU045H06

Observer details:
704 Lincoln Laboratory ETS, New Mexico.  Observers M. Blythe, F. Shelly,
    M. Bezpalko, R. Huber, L. Manguso, D. Torres, R. Kracke, M. McCleary,
    H. Stange, A. Milner.  Measurers J. Stuart, R. Sayer, J. Evans, J. Kommers.
    1.0-m f/2.15 reflector + CCD.
734 Farpoint Observatory.  Observer G. Hug.  0.4-m f/6 Schmidt-Cassegrain
    + CCD.
854 Sabino Canyon Observatory, Tucson.  Observer J. E. McGaha.  0.36-m f/10.0
    Schmidt-Cassegrain + CCD.
H06 New Mexico Skies Observatory.  Observer R. Hutsebaut.  0.25-m reflector
    + CCD.
J95 Great Shefford.  Observer P. Birtwhistle.  0.30-m f/6.3 Schmidt-Cassegrain
    + CCD.

Orbital elements:
2004 UT1
Epoch 2004 July 14.0 TT = JDT 2453200.5                 MPC
M 164.40599              (2000.0)            P               Q
n   1.03586506     Peri.  293.20845     -0.82253316     -0.56696154
a   0.9673878      Node   212.30414     +0.54755530     -0.76826397
e   0.2191307      Incl.    4.79284     +0.15369575     -0.29719535
P   0.95           H   26.6           G   0.15           U   6
Residuals in seconds of arc
041023 704  0.5+  0.1+    041024 704  0.3-  0.1+    041025 734  1.0-  0.7-
041023 704  0.3+  0.3-    041024 704  0.1-  0.6+    041025 734  0.3-  0.0
041023 704  0.0   0.5-    041024 J95  0.0   0.5-    041025 J95  0.0   0.1+
041023 704  0.7+  0.4-    041024 J95  0.5-  0.2+    041025 J95  0.4+  0.2-
041023 704  0.5+  0.7+    041024 J95  0.2-  0.0     041025 J95  0.1+  0.2+
041024 704  0.1+  0.2+    041025 704  0.4+  0.3+    041026 854 (1.0+  3.4-)
041024 704  0.1+  0.0     041025 704  0.4-  0.0     041026 854 (1.1+  3.9-)
041024 704  0.6+  0.5+    041025 704  0.1-  0.3+    041026 854 (1.1+  3.7-)
041024 704  0.0   0.3+    041025 704  0.1-  0.1+    041026 H06  0.2-  0.7+
041024 704  0.3+  0.5+    041025 734  0.5-  0.1+    041026 H06  0.2+  0.1-
041024 704  0.6-  0.0     041025 734  0.1-  0.7-
041024 704  0.8+  0.3+    041025 734  0.3+  1.0-

Ephemeris:
2004 UT1                 a,e,i = 0.97, 0.22, 5                   q = 0.7554
Date    TT    R. A. (2000) Decl.     Delta      r     Elong.  Phase     V
2004 10 22    02 58.31   +26 51.8    0.026    1.019   157.0    22.4    19.8
2004 10 23    03 02.01   +25 05.2    0.022    1.016   158.4    21.2    19.4
2004 10 24    03 06.96   +22 35.0    0.019    1.012   159.7    19.9    19.0
2004 10 25    03 13.96   +18 49.8    0.015    1.008   160.7    19.0    18.5
2004 10 26    03 24.63   +12 42.7    0.012    1.005   160.0    19.8    17.9
2004 10 27    03 42.87   +01 31.2    0.0083   1.001   153.6    26.2    17.4
2004 10 28    04 20.54   -21 00.8    0.0058   0.997   133.2    46.5    17.2
2004 10 29    06 07.43   -55 33.6    0.0053   0.994    95.6    84.1    18.2
2004 10 30    10 27.54   -67 56.2    0.0072   0.990    65.4   114.2    20.3
2004 10 31    12 41.64   -60 58.9    0.010    0.986    50.2   129.3    22.3
2004 11 01    13 25.91   -55 06.3    0.014    0.982    42.3   137.2    23.7

Timothy B. Spahr             (C) Copyright 2004 MPC           M.P.E.C. 2004-U45

Read MPEC 2004-U44 Read MPEC 2004-U46


Our Web policy. Index to the CBAT/MPC/ICQ pages.


Valid HTML 4.01!